Location: Newark
(45.4422°N, 16.2769°E)
Time: 14:29:12
(UTC+00:00)

Courier 1B - Pass Details

Date: 20 December 2019
Orbit: 962 x 1209 km, 28.3° (Epoch: 17 January)

Event Time Altitude Azimuth Distance (km) Brightness Sun altitude
Rises 20:29:02 0° 248° (WSW) 3,796 10.9 -53.6°
Enters shadow 20:29:32 - 245° (WSW) 3,673 10.8 -53.7°
Reaches altitude 10° 20:33:49 10° 219° (SW) 2,904 - -54.4°
Maximum altitude 20:36:16 12° 198° (SSW) 2,788 - -54.8°
Drops below altitude 10° 20:38:47 10° 178° (S) 2,967 - -55.1°
Sets 20:43:49 0° 149° (SSE) 3,987 - -55.9°
